Year,Month,Day,Hour,Minute,Value (Times are PST for temperature in C)
2016,07,16,00,00,15.60
2016,07,16,00,01,15.70
2016,07,16,00,02,15.60
2016,07,16,00,03,15.60
2016,07,16,00,04,15.60
2016,07,16,00,05,15.50
2016,07,16,00,06,15.50
2016,07,16,00,07,15.40
2016,07,16,00,08,15.40
2016,07,16,00,09,15.40
2016,07,16,00,10,15.40
2016,07,16,00,11,15.40
2016,07,16,00,12,15.30
2016,07,16,00,13,15.30
2016,07,16,00,14,15.20
2016,07,16,00,15,15.10
2016,07,16,00,16,15.00
2016,07,16,00,17,15.00
2016,07,16,00,18,14.90
2016,07,16,00,19,14.90
2016,07,16,00,20,14.90
2016,07,16,00,21,14.90
2016,07,16,00,22,14.90
2016,07,16,00,23,14.80
2016,07,16,00,24,14.80
2016,07,16,00,25,14.80
2016,07,16,00,26,14.80
2016,07,16,00,27,14.70
2016,07,16,00,28,14.70
2016,07,16,00,29,14.70
2016,07,16,00,30,14.60
2016,07,16,00,31,14.60
2016,07,16,00,32,14.60
2016,07,16,00,33,14.60
2016,07,16,00,34,14.60
2016,07,16,00,35,14.60
2016,07,16,00,36,14.60
2016,07,16,00,37,14.60
2016,07,16,00,38,14.60
2016,07,16,00,39,14.60
2016,07,16,00,40,14.60
2016,07,16,00,41,14.50
2016,07,16,00,42,14.50
2016,07,16,00,43,14.40
2016,07,16,00,44,14.40
2016,07,16,00,45,14.40
2016,07,16,00,46,14.40
2016,07,16,00,47,14.40
2016,07,16,00,48,14.40
2016,07,16,00,49,14.40
2016,07,16,00,50,14.40
2016,07,16,00,51,14.40
2016,07,16,00,52,14.50
2016,07,16,00,53,14.50
2016,07,16,00,54,14.50
2016,07,16,00,55,14.50
2016,07,16,00,56,14.50
2016,07,16,00,57,14.50
2016,07,16,00,58,14.60
2016,07,16,00,59,14.60
2016,07,16,01,00,14.60
2016,07,16,01,01,14.60
2016,07,16,01,02,14.60
2016,07,16,01,03,14.70
2016,07,16,01,04,14.70
2016,07,16,01,05,14.70
2016,07,16,01,06,14.70
2016,07,16,01,07,14.70
2016,07,16,01,08,14.80
2016,07,16,01,09,14.80
2016,07,16,01,10,14.80
2016,07,16,01,11,14.80
2016,07,16,01,12,14.80
2016,07,16,01,13,14.80
2016,07,16,01,14,14.80
2016,07,16,01,15,14.80
2016,07,16,01,16,14.80
2016,07,16,01,17,14.70
2016,07,16,01,18,14.70
2016,07,16,01,19,14.70
2016,07,16,01,20,14.70
2016,07,16,01,21,14.70
2016,07,16,01,22,14.60
2016,07,16,01,23,14.60
2016,07,16,01,24,14.60
2016,07,16,01,25,14.60
2016,07,16,01,26,14.60
2016,07,16,01,27,14.60
2016,07,16,01,28,14.50
2016,07,16,01,29,14.50
2016,07,16,01,30,14.50
2016,07,16,01,31,14.50
2016,07,16,01,32,14.50
2016,07,16,01,33,14.50
2016,07,16,01,34,14.50
2016,07,16,01,35,14.50
2016,07,16,01,36,14.50
2016,07,16,01,37,14.50
2016,07,16,01,38,14.60
2016,07,16,01,39,14.60
2016,07,16,01,40,14.60
2016,07,16,01,41,14.60
2016,07,16,01,42,14.60
2016,07,16,01,43,14.60
2016,07,16,01,44,14.70
2016,07,16,01,45,14.70
2016,07,16,01,46,14.70
2016,07,16,01,47,14.70
2016,07,16,01,48,14.70
2016,07,16,01,49,14.80
2016,07,16,01,50,14.80
2016,07,16,01,51,14.80
2016,07,16,01,52,14.80
2016,07,16,01,53,14.80
2016,07,16,01,54,14.80
2016,07,16,01,55,14.80
2016,07,16,01,56,14.80
2016,07,16,01,57,14.80
2016,07,16,01,58,14.80
2016,07,16,01,59,14.80
2016,07,16,02,00,14.80
2016,07,16,02,01,14.80
2016,07,16,02,02,14.80
2016,07,16,02,03,14.90
2016,07,16,02,04,14.90
2016,07,16,02,05,14.90
2016,07,16,02,06,14.90
2016,07,16,02,07,14.90
2016,07,16,02,08,14.90
2016,07,16,02,09,14.90
2016,07,16,02,10,14.90
2016,07,16,02,11,14.90
2016,07,16,02,12,15.00
2016,07,16,02,13,15.00
2016,07,16,02,14,15.00
2016,07,16,02,15,15.00
2016,07,16,02,16,15.10
2016,07,16,02,17,15.10
2016,07,16,02,18,15.10
2016,07,16,02,19,15.10
2016,07,16,02,20,15.10
2016,07,16,02,21,15.10
2016,07,16,02,22,15.10
2016,07,16,02,23,15.10
2016,07,16,02,24,15.10
2016,07,16,02,25,15.10
2016,07,16,02,26,15.10
2016,07,16,02,27,15.10
2016,07,16,02,28,15.10
2016,07,16,02,29,15.00
2016,07,16,02,30,15.00
2016,07,16,02,31,15.00
2016,07,16,02,32,15.00
2016,07,16,02,33,14.90
2016,07,16,02,34,14.90
2016,07,16,02,35,14.90
2016,07,16,02,36,14.90
2016,07,16,02,37,14.90
2016,07,16,02,38,14.80
2016,07,16,02,39,14.80
2016,07,16,02,40,14.80
2016,07,16,02,41,14.80
2016,07,16,02,42,14.80
2016,07,16,02,43,14.80
2016,07,16,02,44,14.70
2016,07,16,02,45,14.70
2016,07,16,02,46,14.70
2016,07,16,02,47,14.70
2016,07,16,02,48,14.70
2016,07,16,02,49,14.70
2016,07,16,02,50,14.70
2016,07,16,02,51,14.60
2016,07,16,02,52,14.60
2016,07,16,02,53,14.60
2016,07,16,02,54,14.60
2016,07,16,02,55,14.60
2016,07,16,02,56,14.60
2016,07,16,02,57,14.60
2016,07,16,02,58,14.60
2016,07,16,02,59,14.60
2016,07,16,03,00,14.60
2016,07,16,03,01,14.60
2016,07,16,03,02,14.60
2016,07,16,03,03,14.60
2016,07,16,03,04,14.60
2016,07,16,03,05,14.60
2016,07,16,03,06,14.60
2016,07,16,03,07,14.60
2016,07,16,03,08,14.60
2016,07,16,03,09,14.60
2016,07,16,03,10,14.60
2016,07,16,03,11,14.60
2016,07,16,03,12,14.60
2016,07,16,03,13,14.60
2016,07,16,03,14,14.70
2016,07,16,03,15,14.70
2016,07,16,03,16,14.70
2016,07,16,03,17,14.70
2016,07,16,03,18,14.70
2016,07,16,03,19,14.70
2016,07,16,03,20,14.70
2016,07,16,03,21,14.70
2016,07,16,03,22,14.80
2016,07,16,03,23,14.80
2016,07,16,03,24,14.80
2016,07,16,03,25,14.80
2016,07,16,03,26,14.80
2016,07,16,03,27,14.80
2016,07,16,03,28,14.80
2016,07,16,03,29,14.80
2016,07,16,03,30,14.80
2016,07,16,03,31,14.80
2016,07,16,03,32,14.80
2016,07,16,03,33,14.80
2016,07,16,03,34,14.80
2016,07,16,03,35,14.80
2016,07,16,03,36,14.80
2016,07,16,03,37,14.80
2016,07,16,03,38,14.80
2016,07,16,03,39,14.80
2016,07,16,03,40,14.80
2016,07,16,03,41,14.70
2016,07,16,03,42,14.70
2016,07,16,03,43,14.70
2016,07,16,03,44,14.70
2016,07,16,03,45,14.70
2016,07,16,03,46,14.70
2016,07,16,03,47,14.70
2016,07,16,03,48,14.70
2016,07,16,03,49,14.70
2016,07,16,03,50,14.70
2016,07,16,03,51,14.70
2016,07,16,03,52,14.70
2016,07,16,03,53,14.70
2016,07,16,03,54,14.70
2016,07,16,03,55,14.70
2016,07,16,03,56,14.70
2016,07,16,03,57,14.70
2016,07,16,03,58,14.70
2016,07,16,03,59,14.70
2016,07,16,04,00,14.70
2016,07,16,04,01,14.70
2016,07,16,04,02,14.70
2016,07,16,04,03,14.70
2016,07,16,04,04,14.70
2016,07,16,04,05,14.70
2016,07,16,04,06,14.70
2016,07,16,04,07,14.60
2016,07,16,04,08,14.60
2016,07,16,04,09,14.60
2016,07,16,04,10,14.60
2016,07,16,04,11,14.60
2016,07,16,04,12,14.60
2016,07,16,04,13,14.60
2016,07,16,04,14,14.60
2016,07,16,04,15,14.60
2016,07,16,04,16,14.60
2016,07,16,04,17,14.60
2016,07,16,04,18,14.60
2016,07,16,04,19,14.60
2016,07,16,04,20,14.60
2016,07,16,04,21,14.60
2016,07,16,04,22,14.60
2016,07,16,04,23,14.60
2016,07,16,04,24,14.60
2016,07,16,04,25,14.50
2016,07,16,04,26,14.50
2016,07,16,04,27,14.60
2016,07,16,04,28,14.60
2016,07,16,04,29,14.60
2016,07,16,04,30,14.60
2016,07,16,04,31,14.60
2016,07,16,04,32,14.60
2016,07,16,04,33,14.60
2016,07,16,04,34,14.60
2016,07,16,04,35,14.60
2016,07,16,04,36,14.60
2016,07,16,04,37,14.60
2016,07,16,04,38,14.60
2016,07,16,04,39,14.60
2016,07,16,04,40,14.60
2016,07,16,04,41,14.60
2016,07,16,04,42,14.70
2016,07,16,04,43,14.70
2016,07,16,04,44,14.70
2016,07,16,04,45,14.70
2016,07,16,04,46,14.70
2016,07,16,04,47,14.70
2016,07,16,04,48,14.70
2016,07,16,04,49,14.70
2016,07,16,04,50,14.80
2016,07,16,04,51,14.80
2016,07,16,04,52,14.80
2016,07,16,04,53,14.80
2016,07,16,04,54,14.80
2016,07,16,04,55,14.80
2016,07,16,04,56,14.80
2016,07,16,04,57,14.80
2016,07,16,04,58,14.80
2016,07,16,04,59,14.80
2016,07,16,05,00,14.80
2016,07,16,05,01,14.90
2016,07,16,05,02,14.90
2016,07,16,05,03,14.90
2016,07,16,05,04,14.90
2016,07,16,05,05,14.90
2016,07,16,05,06,14.90
2016,07,16,05,07,14.90
2016,07,16,05,08,14.90
2016,07,16,05,09,14.90
2016,07,16,05,10,14.90
2016,07,16,05,11,14.90
2016,07,16,05,12,15.00
2016,07,16,05,13,15.00
2016,07,16,05,14,15.00
2016,07,16,05,15,15.00
2016,07,16,05,16,15.00
2016,07,16,05,17,15.00
2016,07,16,05,18,15.00
2016,07,16,05,19,14.90
2016,07,16,05,20,14.90
2016,07,16,05,21,14.90
2016,07,16,05,22,14.80
2016,07,16,05,23,14.80
2016,07,16,05,24,14.80
2016,07,16,05,25,14.80
2016,07,16,05,26,14.80
2016,07,16,05,27,14.80
2016,07,16,05,28,14.80
2016,07,16,05,29,14.80
2016,07,16,05,30,14.80
2016,07,16,05,31,14.80
2016,07,16,05,32,14.80
2016,07,16,05,33,14.80
2016,07,16,05,34,14.80
2016,07,16,05,35,14.80
2016,07,16,05,36,14.80
2016,07,16,05,37,14.80
2016,07,16,05,38,14.80
2016,07,16,05,39,14.80
2016,07,16,05,40,14.80
2016,07,16,05,41,14.80
2016,07,16,05,42,14.80
2016,07,16,05,43,14.80
2016,07,16,05,44,14.80
2016,07,16,05,45,14.80
2016,07,16,05,46,14.80
2016,07,16,05,47,14.80
2016,07,16,05,48,14.80
2016,07,16,05,49,14.90
2016,07,16,05,50,14.90
2016,07,16,05,51,14.90
2016,07,16,05,52,14.90
2016,07,16,05,53,14.90
2016,07,16,05,54,14.90
2016,07,16,05,55,14.90
2016,07,16,05,56,14.90
2016,07,16,05,57,15.00
2016,07,16,05,58,15.00
2016,07,16,05,59,15.00
2016,07,16,06,00,15.00
2016,07,16,06,01,15.00
2016,07,16,06,02,15.10
2016,07,16,06,03,15.10
2016,07,16,06,04,15.10
2016,07,16,06,05,15.20
2016,07,16,06,06,15.20
2016,07,16,06,07,15.20
2016,07,16,06,08,15.20
2016,07,16,06,09,15.20
2016,07,16,06,10,15.30
2016,07,16,06,11,15.30
2016,07,16,06,12,15.30
2016,07,16,06,13,15.30
2016,07,16,06,14,15.30
2016,07,16,06,15,15.30
2016,07,16,06,16,15.30
2016,07,16,06,17,15.30
2016,07,16,06,18,15.30
2016,07,16,06,19,15.30
2016,07,16,06,20,15.30
2016,07,16,06,21,15.30
2016,07,16,06,22,15.30
2016,07,16,06,23,15.40
2016,07,16,06,24,15.40
2016,07,16,06,25,15.40
2016,07,16,06,26,15.40
2016,07,16,06,27,15.40
2016,07,16,06,28,15.40
2016,07,16,06,29,15.40
2016,07,16,06,30,15.40
2016,07,16,06,31,15.40
2016,07,16,06,32,15.40
2016,07,16,06,33,15.40
2016,07,16,06,34,15.40
2016,07,16,06,35,15.40
2016,07,16,06,36,15.40
2016,07,16,06,37,15.40
2016,07,16,06,38,15.40
2016,07,16,06,39,15.40
2016,07,16,06,40,15.40
2016,07,16,06,41,15.40
2016,07,16,06,42,15.40
2016,07,16,06,43,15.40
2016,07,16,06,44,15.40
2016,07,16,06,45,15.30
2016,07,16,06,46,15.30
2016,07,16,06,47,15.30
2016,07,16,06,48,15.20
2016,07,16,06,49,15.20
2016,07,16,06,50,15.10
2016,07,16,06,51,15.10
2016,07,16,06,52,15.10
2016,07,16,06,53,15.00
2016,07,16,06,54,15.00
2016,07,16,06,55,15.00
2016,07,16,06,56,15.00
2016,07,16,06,57,15.00
2016,07,16,06,58,14.90
2016,07,16,06,59,14.90
2016,07,16,07,00,14.80
2016,07,16,07,01,14.80
2016,07,16,07,02,14.80
2016,07,16,07,03,14.80
2016,07,16,07,04,14.80
2016,07,16,07,05,14.70
2016,07,16,07,06,14.70
2016,07,16,07,07,14.70
2016,07,16,07,08,14.70
2016,07,16,07,09,14.70
2016,07,16,07,10,14.60
2016,07,16,07,11,14.60
2016,07,16,07,12,14.60
2016,07,16,07,13,14.60
2016,07,16,07,14,14.60
2016,07,16,07,15,14.60
2016,07,16,07,16,14.60
2016,07,16,07,17,14.60
2016,07,16,07,18,14.60
2016,07,16,07,19,14.60
2016,07,16,07,20,14.60
2016,07,16,07,21,14.60
2016,07,16,07,22,14.60
2016,07,16,07,23,14.60
2016,07,16,07,24,14.70
2016,07,16,07,25,14.70
2016,07,16,07,26,14.70
2016,07,16,07,27,14.70
2016,07,16,07,28,14.70
2016,07,16,07,29,14.70
2016,07,16,07,30,14.70
2016,07,16,07,31,14.80
2016,07,16,07,32,14.80
2016,07,16,07,33,14.80
2016,07,16,07,34,14.80
2016,07,16,07,35,14.80
2016,07,16,07,36,14.90
2016,07,16,07,37,14.90
2016,07,16,07,38,14.90
2016,07,16,07,39,14.90
2016,07,16,07,40,14.80
2016,07,16,07,41,14.80
2016,07,16,07,42,14.80
2016,07,16,07,43,14.80
2016,07,16,07,44,14.80
2016,07,16,07,45,14.90
2016,07,16,07,46,14.90
2016,07,16,07,47,14.90
2016,07,16,07,48,15.00
2016,07,16,07,49,15.00
2016,07,16,07,50,15.10
2016,07,16,07,51,15.10
2016,07,16,07,52,15.10
2016,07,16,07,53,15.10
2016,07,16,07,54,15.20
2016,07,16,07,55,15.30
2016,07,16,07,56,15.30
2016,07,16,07,57,15.30
2016,07,16,07,58,15.30
2016,07,16,07,59,15.30
2016,07,16,08,00,15.30
2016,07,16,08,01,15.20
2016,07,16,08,02,15.20
2016,07,16,08,03,15.10
2016,07,16,08,04,15.10
2016,07,16,08,05,15.10
2016,07,16,08,06,15.10
2016,07,16,08,07,15.10
2016,07,16,08,08,15.10
2016,07,16,08,09,15.10
2016,07,16,08,10,15.10
2016,07,16,08,11,15.10
2016,07,16,08,12,15.10
2016,07,16,08,13,15.10
2016,07,16,08,14,15.20
2016,07,16,08,15,15.20
2016,07,16,08,16,15.20
2016,07,16,08,17,15.30
2016,07,16,08,18,15.30
2016,07,16,08,19,15.30
2016,07,16,08,20,15.30
2016,07,16,08,21,15.30
2016,07,16,08,22,15.30
2016,07,16,08,23,15.30
2016,07,16,08,24,15.30
2016,07,16,08,25,15.40
2016,07,16,08,26,15.40
2016,07,16,08,27,15.50
2016,07,16,08,28,15.50
2016,07,16,08,29,15.50
2016,07,16,08,30,15.50
2016,07,16,08,31,15.50
2016,07,16,08,32,15.60
2016,07,16,08,33,15.60
2016,07,16,08,34,15.60
2016,07,16,08,35,15.70
2016,07,16,08,36,15.80
2016,07,16,08,37,15.80
2016,07,16,08,38,15.80
2016,07,16,08,39,15.90
2016,07,16,08,40,16.00
2016,07,16,08,41,16.10
2016,07,16,08,42,16.10
2016,07,16,08,43,16.20
2016,07,16,08,44,16.20
2016,07,16,08,45,16.30
2016,07,16,08,46,16.30
2016,07,16,08,47,16.20
2016,07,16,08,48,16.20
2016,07,16,08,49,16.10
2016,07,16,08,50,16.10
2016,07,16,08,51,16.10
2016,07,16,08,52,16.10
2016,07,16,08,53,16.10
2016,07,16,08,54,16.10
2016,07,16,08,55,16.10
2016,07,16,08,56,16.10
2016,07,16,08,57,16.10
2016,07,16,08,58,16.10
2016,07,16,08,59,16.00
2016,07,16,09,00,15.90
2016,07,16,09,01,15.90
2016,07,16,09,02,15.90
2016,07,16,09,03,15.90
2016,07,16,09,04,16.00
2016,07,16,09,05,16.10
2016,07,16,09,06,16.10
2016,07,16,09,07,16.10
2016,07,16,09,08,16.20
2016,07,16,09,09,16.20
2016,07,16,09,10,16.20
2016,07,16,09,11,16.30
2016,07,16,09,12,16.40
2016,07,16,09,13,16.40
2016,07,16,09,14,16.60
2016,07,16,09,15,16.60
2016,07,16,09,16,16.70
2016,07,16,09,17,16.70
2016,07,16,09,18,16.70
2016,07,16,09,19,16.70
2016,07,16,09,20,16.70
2016,07,16,09,21,16.60
2016,07,16,09,22,16.60
2016,07,16,09,23,16.70
2016,07,16,09,24,16.60
2016,07,16,09,25,16.60
2016,07,16,09,26,16.60
2016,07,16,09,27,16.70
2016,07,16,09,28,16.70
2016,07,16,09,29,16.70
2016,07,16,09,30,16.70
2016,07,16,09,31,16.70
2016,07,16,09,32,16.70
2016,07,16,09,33,16.70
2016,07,16,09,34,16.70
2016,07,16,09,35,16.70
2016,07,16,09,36,16.70
2016,07,16,09,37,16.60
2016,07,16,09,38,16.60
2016,07,16,09,39,16.60
2016,07,16,09,40,16.60
2016,07,16,09,41,16.60
2016,07,16,09,42,16.60
2016,07,16,09,43,16.50
2016,07,16,09,44,16.40
2016,07,16,09,45,16.40
2016,07,16,09,46,16.40
2016,07,16,09,47,16.40
2016,07,16,09,48,16.40
2016,07,16,09,49,16.40
2016,07,16,09,50,16.40
2016,07,16,09,51,16.50
2016,07,16,09,52,16.40
2016,07,16,09,53,16.40
2016,07,16,09,54,16.40
2016,07,16,09,55,16.40
2016,07,16,09,56,16.40
2016,07,16,09,57,16.40
2016,07,16,09,58,16.30
2016,07,16,09,59,16.30
2016,07,16,10,00,16.30
2016,07,16,10,01,16.30
2016,07,16,10,02,16.20
2016,07,16,10,03,16.20
2016,07,16,10,04,16.20
2016,07,16,10,05,16.10
2016,07,16,10,06,16.10
2016,07,16,10,07,16.10
2016,07,16,10,08,16.10
2016,07,16,10,09,16.10
2016,07,16,10,10,16.10
2016,07,16,10,11,16.10
2016,07,16,10,12,16.10
2016,07,16,10,13,16.20
2016,07,16,10,14,16.30
2016,07,16,10,15,16.40
2016,07,16,10,16,16.40
2016,07,16,10,17,16.50
2016,07,16,10,18,16.60
2016,07,16,10,19,16.70
2016,07,16,10,20,16.70
2016,07,16,10,21,16.70
2016,07,16,10,22,16.70
2016,07,16,10,23,16.80
2016,07,16,10,24,16.90
2016,07,16,10,25,16.90
2016,07,16,10,26,17.00
2016,07,16,10,27,17.10
2016,07,16,10,28,17.20
2016,07,16,10,29,17.30
2016,07,16,10,30,17.40
2016,07,16,10,31,17.50
2016,07,16,10,32,17.50
2016,07,16,10,33,17.50
2016,07,16,10,34,17.50
2016,07,16,10,35,17.40
2016,07,16,10,36,17.30
2016,07,16,10,37,17.30
2016,07,16,10,38,17.30
2016,07,16,10,39,17.30
2016,07,16,10,40,17.30
2016,07,16,10,41,17.30
2016,07,16,10,42,17.30
2016,07,16,10,43,17.30
2016,07,16,10,44,17.30
2016,07,16,10,45,17.30
2016,07,16,10,46,17.10
2016,07,16,10,47,17.10
2016,07,16,10,48,17.00
2016,07,16,10,49,17.00
2016,07,16,10,50,16.90
2016,07,16,10,51,16.80
2016,07,16,10,52,16.70
2016,07,16,10,53,16.50
2016,07,16,10,54,16.40
2016,07,16,10,55,16.40
2016,07,16,10,56,16.40
2016,07,16,10,57,16.40
2016,07,16,10,58,16.40
2016,07,16,10,59,16.40
2016,07,16,11,00,16.30
2016,07,16,11,01,16.20
2016,07,16,11,02,16.10
2016,07,16,11,03,16.10
2016,07,16,11,04,16.10
2016,07,16,11,05,16.10
2016,07,16,11,06,16.00
2016,07,16,11,07,15.90
2016,07,16,11,08,15.80
2016,07,16,11,09,15.80
2016,07,16,11,10,15.80
2016,07,16,11,11,15.80
2016,07,16,11,12,15.80
2016,07,16,11,13,15.90
2016,07,16,11,14,15.90
2016,07,16,11,15,15.90
2016,07,16,11,16,16.10
2016,07,16,11,17,16.10
2016,07,16,11,18,16.20
2016,07,16,11,19,16.20
2016,07,16,11,20,16.20
2016,07,16,11,21,16.30
2016,07,16,11,22,16.30
2016,07,16,11,23,16.30
2016,07,16,11,24,16.30
2016,07,16,11,25,16.40
2016,07,16,11,26,16.40
2016,07,16,11,27,16.40
2016,07,16,11,28,16.40
2016,07,16,11,29,16.40
2016,07,16,11,30,16.40
2016,07,16,11,31,16.40
2016,07,16,11,32,16.40
2016,07,16,11,33,16.30
2016,07,16,11,34,16.30
2016,07,16,11,35,16.20
2016,07,16,11,36,16.20
2016,07,16,11,37,16.20
2016,07,16,11,38,16.20
2016,07,16,11,39,16.30
2016,07,16,11,40,16.40
2016,07,16,11,41,16.40
2016,07,16,11,42,16.40
2016,07,16,11,43,16.40
2016,07,16,11,44,16.50
2016,07,16,11,45,16.70
2016,07,16,11,46,16.70
2016,07,16,11,47,16.70
2016,07,16,11,48,16.70
2016,07,16,11,49,16.70
2016,07,16,11,50,16.70
2016,07,16,11,51,16.80
2016,07,16,11,52,16.80
2016,07,16,11,53,16.80
2016,07,16,11,54,16.80
2016,07,16,11,55,16.90
2016,07,16,11,56,16.90
2016,07,16,11,57,16.90
2016,07,16,11,58,17.00
2016,07,16,11,59,17.00
2016,07,16,12,00,16.90
2016,07,16,12,01,16.90
2016,07,16,12,02,16.90
2016,07,16,12,03,16.80
2016,07,16,12,04,16.80
2016,07,16,12,05,16.80
2016,07,16,12,06,16.90
2016,07,16,12,07,16.90
2016,07,16,12,08,16.90
2016,07,16,12,09,16.90
2016,07,16,12,10,16.90
2016,07,16,12,11,16.90
2016,07,16,12,12,16.90
2016,07,16,12,13,16.90
2016,07,16,12,14,16.90
2016,07,16,12,15,16.80
2016,07,16,12,16,16.80
2016,07,16,12,17,16.90
2016,07,16,12,18,16.90
2016,07,16,12,19,16.90
2016,07,16,12,20,16.90
2016,07,16,12,21,16.90
2016,07,16,12,22,16.90
2016,07,16,12,23,16.90
2016,07,16,12,24,17.00
2016,07,16,12,25,17.10
2016,07,16,12,26,17.10
2016,07,16,12,27,17.10
2016,07,16,12,28,17.10
2016,07,16,12,29,17.00
2016,07,16,12,30,16.90
2016,07,16,12,31,16.90
2016,07,16,12,32,16.90
2016,07,16,12,33,16.90
2016,07,16,12,34,16.90
2016,07,16,12,35,17.00
2016,07,16,12,36,17.00
2016,07,16,12,37,17.00
2016,07,16,12,38,17.00
2016,07,16,12,39,17.10
2016,07,16,12,40,17.10
2016,07,16,12,41,17.10
2016,07,16,12,42,17.20
2016,07,16,12,43,17.20
2016,07,16,12,44,17.20
2016,07,16,12,45,17.40
2016,07,16,12,46,17.40
2016,07,16,12,47,17.50
2016,07,16,12,48,17.50
2016,07,16,12,49,17.60
2016,07,16,12,50,17.60
2016,07,16,12,51,17.60
2016,07,16,12,52,17.70
2016,07,16,12,53,17.80
2016,07,16,12,54,17.90
2016,07,16,12,55,17.90
2016,07,16,12,56,17.90
2016,07,16,12,57,17.90
2016,07,16,12,58,17.90
2016,07,16,12,59,17.90
2016,07,16,13,00,17.90
2016,07,16,13,01,18.00
2016,07,16,13,02,18.10
2016,07,16,13,03,18.30
2016,07,16,13,04,18.40
2016,07,16,13,05,18.50
2016,07,16,13,06,18.60
2016,07,16,13,07,18.60
2016,07,16,13,08,18.70
2016,07,16,13,09,18.60
2016,07,16,13,10,18.60
2016,07,16,13,11,18.60
2016,07,16,13,12,18.60
2016,07,16,13,13,18.60
2016,07,16,13,14,18.60
2016,07,16,13,15,18.50
2016,07,16,13,16,18.30
2016,07,16,13,17,18.20
2016,07,16,13,18,18.00
2016,07,16,13,19,18.00
2016,07,16,13,20,18.10
2016,07,16,13,21,18.20
2016,07,16,13,22,18.20
2016,07,16,13,23,18.20
2016,07,16,13,24,18.20
2016,07,16,13,25,18.10
2016,07,16,13,26,18.00
2016,07,16,13,27,17.90
2016,07,16,13,28,17.80
2016,07,16,13,29,17.70
2016,07,16,13,30,17.80
2016,07,16,13,31,17.80
2016,07,16,13,32,17.90
2016,07,16,13,33,18.00
2016,07,16,13,34,18.20
2016,07,16,13,35,18.40
2016,07,16,13,36,18.50
2016,07,16,13,37,18.50
2016,07,16,13,38,18.60
2016,07,16,13,39,18.50
2016,07,16,13,40,18.60
2016,07,16,13,41,18.70
2016,07,16,13,42,18.70
2016,07,16,13,43,18.60
2016,07,16,13,44,18.50
2016,07,16,13,45,18.40
2016,07,16,13,46,18.30
2016,07,16,13,47,18.40
2016,07,16,13,48,18.60
2016,07,16,13,49,18.60
2016,07,16,13,50,18.60
2016,07,16,13,51,18.60
2016,07,16,13,52,18.60
2016,07,16,13,53,18.60
2016,07,16,13,54,18.60
2016,07,16,13,55,18.70
2016,07,16,13,56,18.70
2016,07,16,13,57,18.80
2016,07,16,13,58,19.00
2016,07,16,13,59,19.10
2016,07,16,14,00,19.10
2016,07,16,14,01,19.10
2016,07,16,14,02,19.30
2016,07,16,14,03,19.30
2016,07,16,14,04,19.30
2016,07,16,14,05,19.30
2016,07,16,14,06,19.30
2016,07,16,14,07,19.40
2016,07,16,14,08,19.30
2016,07,16,14,09,19.40
2016,07,16,14,10,19.60
2016,07,16,14,11,19.70
2016,07,16,14,12,20.00
2016,07,16,14,13,20.10
2016,07,16,14,14,20.20
2016,07,16,14,15,20.20
2016,07,16,14,16,20.20
2016,07,16,14,17,20.20
2016,07,16,14,18,20.10
2016,07,16,14,19,20.10
2016,07,16,14,20,20.10
2016,07,16,14,21,20.00
2016,07,16,14,22,19.90
2016,07,16,14,23,19.90
2016,07,16,14,24,20.10
2016,07,16,14,25,20.20
2016,07,16,14,26,20.30
2016,07,16,14,27,20.30
2016,07,16,14,28,20.30
2016,07,16,14,29,20.40
2016,07,16,14,30,20.50
2016,07,16,14,31,20.50
2016,07,16,14,32,20.50
2016,07,16,14,33,20.60
2016,07,16,14,34,20.70
2016,07,16,14,35,20.70
2016,07,16,14,36,20.70
2016,07,16,14,37,20.60
2016,07,16,14,38,20.60
2016,07,16,14,39,20.60
2016,07,16,14,40,20.60
2016,07,16,14,41,20.60
2016,07,16,14,42,20.50
2016,07,16,14,43,20.50
2016,07,16,14,44,20.50
2016,07,16,14,45,20.50
2016,07,16,14,46,20.30
2016,07,16,14,47,20.20
2016,07,16,14,48,20.20
2016,07,16,14,49,20.20
2016,07,16,14,50,20.20
2016,07,16,14,51,20.20
2016,07,16,14,52,20.20
2016,07,16,14,53,20.10
2016,07,16,14,54,20.00
2016,07,16,14,55,19.90
2016,07,16,14,56,20.00
2016,07,16,14,57,20.10
2016,07,16,14,58,20.20
2016,07,16,14,59,20.30
2016,07,16,15,00,20.30
2016,07,16,15,01,20.20
2016,07,16,15,02,20.20
2016,07,16,15,03,20.20
2016,07,16,15,04,20.10
2016,07,16,15,05,20.10
2016,07,16,15,06,20.10
2016,07,16,15,07,20.00
2016,07,16,15,08,19.90
2016,07,16,15,09,19.90
2016,07,16,15,10,19.80
2016,07,16,15,11,19.90
2016,07,16,15,12,19.90
2016,07,16,15,13,19.90
2016,07,16,15,14,20.10
2016,07,16,15,15,20.10
2016,07,16,15,16,20.00
2016,07,16,15,17,20.00
2016,07,16,15,18,20.00
2016,07,16,15,19,20.00
2016,07,16,15,20,19.90
2016,07,16,15,21,19.90
2016,07,16,15,22,19.90
2016,07,16,15,23,19.90
2016,07,16,15,24,19.90
2016,07,16,15,25,20.10
2016,07,16,15,26,20.10
2016,07,16,15,27,20.20
2016,07,16,15,28,20.30
2016,07,16,15,29,20.30
2016,07,16,15,30,20.20
2016,07,16,15,31,20.10
2016,07,16,15,32,20.10
2016,07,16,15,33,20.10
2016,07,16,15,34,20.10
2016,07,16,15,35,20.20
2016,07,16,15,36,20.40
2016,07,16,15,37,20.40
2016,07,16,15,38,20.40
2016,07,16,15,39,20.40
2016,07,16,15,40,20.30
2016,07,16,15,41,20.20
2016,07,16,15,42,20.20
2016,07,16,15,43,20.20
2016,07,16,15,44,20.20
2016,07,16,15,45,20.20
2016,07,16,15,46,20.30
2016,07,16,15,47,20.20
2016,07,16,15,48,20.20
2016,07,16,15,49,20.20
2016,07,16,15,50,20.10
2016,07,16,15,51,19.90
2016,07,16,15,52,19.80
2016,07,16,15,53,19.80
2016,07,16,15,54,19.70
2016,07,16,15,55,19.60
2016,07,16,15,56,19.50
2016,07,16,15,57,19.40
2016,07,16,15,58,19.40
2016,07,16,15,59,19.50
2016,07,16,16,00,19.50
2016,07,16,16,01,19.40
2016,07,16,16,02,19.40
2016,07,16,16,03,19.40
2016,07,16,16,04,19.30
2016,07,16,16,05,19.30
2016,07,16,16,06,19.20
2016,07,16,16,07,19.10
2016,07,16,16,08,19.00
2016,07,16,16,09,18.80
2016,07,16,16,10,18.80
2016,07,16,16,11,18.80
2016,07,16,16,12,18.70
2016,07,16,16,13,18.70
2016,07,16,16,14,18.60
2016,07,16,16,15,18.50
2016,07,16,16,16,18.40
2016,07,16,16,17,18.30
2016,07,16,16,18,18.30
2016,07,16,16,19,18.40
2016,07,16,16,20,18.40
2016,07,16,16,21,18.30
2016,07,16,16,22,18.40
2016,07,16,16,23,18.30
2016,07,16,16,24,18.30
2016,07,16,16,25,18.20
2016,07,16,16,26,18.10
2016,07,16,16,27,18.10
2016,07,16,16,28,18.10
2016,07,16,16,29,18.00
2016,07,16,16,30,17.90
2016,07,16,16,31,18.10
2016,07,16,16,32,18.00
2016,07,16,16,33,17.90
2016,07,16,16,34,17.90
2016,07,16,16,35,17.90
2016,07,16,16,36,17.90
2016,07,16,16,37,17.90
2016,07,16,16,38,18.10
2016,07,16,16,39,18.20
2016,07,16,16,40,18.30
2016,07,16,16,41,18.30
2016,07,16,16,42,18.40
2016,07,16,16,43,18.40
2016,07,16,16,44,18.40
2016,07,16,16,45,18.40
2016,07,16,16,46,18.40
2016,07,16,16,47,18.30
2016,07,16,16,48,18.20
2016,07,16,16,49,18.30
2016,07,16,16,50,18.30
2016,07,16,16,51,18.30
2016,07,16,16,52,18.40
2016,07,16,16,53,18.40
2016,07,16,16,54,18.40
2016,07,16,16,55,18.50
2016,07,16,16,56,18.50
2016,07,16,16,57,18.60
2016,07,16,16,58,18.60
2016,07,16,16,59,18.60
2016,07,16,17,00,18.60
2016,07,16,17,01,18.50
2016,07,16,17,02,18.40
2016,07,16,17,03,18.40
2016,07,16,17,04,18.30
2016,07,16,17,05,18.30
2016,07,16,17,06,18.20
2016,07,16,17,07,18.20
2016,07,16,17,08,18.20
2016,07,16,17,09,18.20
2016,07,16,17,10,18.20
2016,07,16,17,11,18.20
2016,07,16,17,12,18.20
2016,07,16,17,13,18.30
2016,07,16,17,14,18.20
2016,07,16,17,15,18.30
2016,07,16,17,16,18.30
2016,07,16,17,17,18.20
2016,07,16,17,18,18.20
2016,07,16,17,19,18.20